Time,TemperatureF,DewpointF,PressureIn,WindDirection,WindDirectionDegrees,WindSpeedMPH,WindSpeedGustMPH,Humidity,HourlyPrecipIn,Conditions,Clouds,dailyrainin,SoftwareType,DateUTC
2013-09-19 00:11:00,63.3,57.0,29.95,NE,43,0.0,0.0,81,0.00,,,0.00,weatherlink.com 1.10,2013-09-19 04:11:00,
2013-09-19 00:26:00,63.1,57.0,29.95,NE,43,0.0,0.0,80,0.00,,,0.00,weatherlink.com 1.10,2013-09-19 04:26:00,
2013-09-19 00:41:00,62.7,58.0,29.95,NNE,27,0.0,0.0,83,0.00,,,0.00,weatherlink.com 1.10,2013-09-19 04:41:00,
2013-09-19 00:56:00,62.0,57.0,29.95,NNE,27,0.0,0.0,83,0.00,,,0.00,weatherlink.com 1.10,2013-09-19 04:56:00,
2013-09-19 01:11:00,62.0,57.0,29.95,NNE,26,0.0,0.0,83,0.00,,,0.00,weatherlink.com 1.10,2013-09-19 05:11:00,
2013-09-19 01:26:00,61.8,57.0,29.95,NNE,26,0.0,0.0,84,0.00,,,0.00,weatherlink.com 1.10,2013-09-19 05:26:00,
2013-09-19 01:41:00,61.4,57.0,29.95,NNE,25,0.0,0.0,85,0.00,,,0.00,weatherlink.com 1.10,2013-09-19 05:41:00,
2013-09-19 01:56:00,61.2,57.0,29.95,NNE,26,0.0,0.0,86,0.00,,,0.00,weatherlink.com 1.10,2013-09-19 05:56:00,
2013-09-19 02:11:00,61.1,56.0,29.95,NNE,26,0.0,0.0,84,0.00,,,0.00,weatherlink.com 1.10,2013-09-19 06:11:00,
2013-09-19 02:26:00,61.3,57.0,29.95,NNE,26,0.0,0.0,84,0.00,,,0.00,weatherlink.com 1.10,2013-09-19 06:26:00,
2013-09-19 02:41:00,61.0,56.0,29.95,NNE,26,0.0,0.0,84,0.00,,,0.00,weatherlink.com 1.10,2013-09-19 06:41:00,
2013-09-19 02:56:00,60.9,56.0,29.94,NNE,27,0.0,0.0,84,0.00,,,0.00,weatherlink.com 1.10,2013-09-19 06:56:00,
2013-09-19 03:11:00,60.8,56.0,29.94,NNE,27,0.0,0.0,84,0.00,,,0.00,weatherlink.com 1.10,2013-09-19 07:11:00,
2013-09-19 03:26:00,60.6,56.0,29.94,East,89,0.0,0.0,84,0.00,,,0.00,weatherlink.com 1.10,2013-09-19 07:26:00,
2013-09-19 03:41:00,60.5,56.0,29.94,East,89,0.0,0.0,84,0.00,,,0.00,weatherlink.com 1.10,2013-09-19 07:41:00,
2013-09-19 03:56:00,60.5,56.0,29.94,ESE,115,0.0,0.0,84,0.00,,,0.00,weatherlink.com 1.10,2013-09-19 07:56:00,
2013-09-19 04:11:00,60.6,56.0,29.93,ESE,118,0.0,0.0,86,0.00,,,0.00,weatherlink.com 1.10,2013-09-19 08:11:00,
2013-09-19 04:26:00,60.5,57.0,29.92,ESE,118,0.0,0.0,87,0.00,,,0.00,weatherlink.com 1.10,2013-09-19 08:26:00,
2013-09-19 04:41:00,60.2,57.0,29.92,ESE,120,0.0,0.0,89,0.00,,,0.00,weatherlink.com 1.10,2013-09-19 08:41:00,
2013-09-19 04:56:00,60.5,57.0,29.92,ESE,120,0.0,0.0,89,0.00,,,0.00,weatherlink.com 1.10,2013-09-19 08:56:00,
2013-09-19 05:12:00,60.0,57.0,29.93,ESE,120,0.0,0.0,89,0.00,,,0.00,weatherlink.com 1.10,2013-09-19 09:12:00,
2013-09-19 05:27:00,60.6,57.0,29.93,ESE,120,0.0,0.0,88,0.00,,,0.00,weatherlink.com 1.10,2013-09-19 09:27:00,
2013-09-19 05:42:00,61.3,58.0,29.93,ESE,122,0.0,0.0,88,0.00,,,0.00,weatherlink.com 1.10,2013-09-19 09:42:00,
2013-09-19 05:57:00,61.1,58.0,29.94,ESE,122,0.0,0.0,88,0.00,,,0.00,weatherlink.com 1.10,2013-09-19 09:57:00,
2013-09-19 06:12:00,61.1,58.0,29.94,ESE,122,0.0,0.0,88,0.00,,,0.00,weatherlink.com 1.10,2013-09-19 10:12:00,
2013-09-19 06:27:00,61.3,58.0,29.94,ESE,122,0.0,0.0,88,0.00,,,0.00,weatherlink.com 1.10,2013-09-19 10:27:00,
2013-09-19 06:42:00,61.3,58.0,29.95,ESE,122,0.0,0.0,88,0.00,,,0.00,weatherlink.com 1.10,2013-09-19 10:42:00,
2013-09-19 07:12:00,61.3,59.0,29.96,East,86,0.0,1.0,93,0.04,,,0.04,weatherlink.com 1.10,2013-09-19 11:12:00,
2013-09-19 07:27:00,61.2,60.0,29.97,East,86,0.0,0.0,94,0.06,,,0.06,weatherlink.com 1.10,2013-09-19 11:27:00,
2013-09-19 07:42:00,61.3,60.0,29.97,East,86,0.0,0.0,95,0.07,,,0.07,weatherlink.com 1.10,2013-09-19 11:42:00,
2013-09-19 07:57:00,61.3,60.0,29.96,East,96,0.0,0.0,95,0.07,,,0.09,weatherlink.com 1.10,2013-09-19 11:57:00,
2013-09-19 08:12:00,61.3,60.0,29.96,SE,124,0.0,1.0,96,0.06,,,0.10,weatherlink.com 1.10,2013-09-19 12:12:00,
2013-09-19 08:27:00,61.3,60.0,29.95,SE,138,0.0,0.0,96,0.04,,,0.10,weatherlink.com 1.10,2013-09-19 12:27:00,
2013-09-19 08:42:00,61.3,60.0,29.96,SE,138,0.0,0.0,96,0.03,,,0.10,weatherlink.com 1.10,2013-09-19 12:42:00,
2013-09-19 08:57:00,61.3,60.0,29.96,SE,131,0.0,0.0,96,0.01,,,0.10,weatherlink.com 1.10,2013-09-19 12:57:00,
2013-09-19 09:12:00,61.5,60.0,29.95,East,89,0.0,0.0,96,0.00,,,0.10,weatherlink.com 1.10,2013-09-19 13:12:00,
2013-09-19 09:27:00,61.8,61.0,29.96,East,89,0.0,0.0,97,0.01,,,0.11,weatherlink.com 1.10,2013-09-19 13:27:00,
2013-09-19 09:42:00,62.6,62.0,29.95,ESE,104,0.0,0.0,97,0.01,,,0.11,weatherlink.com 1.10,2013-09-19 13:42:00,
2013-09-19 09:57:00,63.4,63.0,29.95,ESE,122,0.0,0.0,97,0.02,,,0.12,weatherlink.com 1.10,2013-09-19 13:57:00,
2013-09-19 10:12:00,63.7,63.0,29.95,ESE,122,0.0,0.0,97,0.02,,,0.12,weatherlink.com 1.10,2013-09-19 14:12:00,
2013-09-19 10:27:00,64.6,64.0,29.94,ESE,121,0.0,0.0,97,0.01,,,0.12,weatherlink.com 1.10,2013-09-19 14:27:00,
2013-09-19 10:42:00,66.1,66.0,29.95,ENE,58,0.0,0.0,98,0.01,,,0.12,weatherlink.com 1.10,2013-09-19 14:42:00,
2013-09-19 10:57:00,67.9,67.0,29.94,East,80,0.0,0.0,98,0.00,,,0.12,weatherlink.com 1.10,2013-09-19 14:57:00,
2013-09-19 11:12:00,69.1,68.0,29.94,ENE,65,0.0,2.0,97,0.00,,,0.12,weatherlink.com 1.10,2013-09-19 15:12:00,
2013-09-19 11:27:00,70.0,69.0,29.95,SSE,150,0.0,0.0,96,0.00,,,0.12,weatherlink.com 1.10,2013-09-19 15:27:00,
2013-09-19 11:42:00,70.2,69.0,29.95,SSE,148,0.0,0.0,95,0.00,,,0.12,weatherlink.com 1.10,2013-09-19 15:42:00,
2013-09-19 11:57:00,70.1,68.0,29.95,WSW,246,0.0,0.0,94,0.00,,,0.12,weatherlink.com 1.10,2013-09-19 15:57:00,
2013-09-19 12:12:00,70.1,68.0,29.94,SSE,148,0.0,3.0,94,0.00,,,0.12,weatherlink.com 1.10,2013-09-19 16:12:00,
2013-09-19 12:27:00,70.4,69.0,29.93,SSE,153,0.0,0.0,94,0.00,,,0.12,weatherlink.com 1.10,2013-09-19 16:27:00,
2013-09-19 12:42:00,70.3,68.0,29.93,WSW,248,0.0,0.0,92,0.00,,,0.12,weatherlink.com 1.10,2013-09-19 16:42:00,
2013-09-19 12:57:00,70.4,68.0,29.92,SW,229,0.0,1.0,92,0.00,,,0.12,weatherlink.com 1.10,2013-09-19 16:57:00,
2013-09-19 13:12:00,70.6,68.0,29.91,SW,215,0.0,1.0,92,0.00,,,0.12,weatherlink.com 1.10,2013-09-19 17:12:00,
2013-09-19 13:27:00,70.5,68.0,29.90,SE,141,0.0,3.0,91,0.00,,,0.12,weatherlink.com 1.10,2013-09-19 17:27:00,
2013-09-19 13:42:00,70.4,68.0,29.88,WSW,240,0.0,2.0,92,0.00,,,0.12,weatherlink.com 1.10,2013-09-19 17:42:00,
2013-09-19 13:57:00,70.4,68.0,29.87,SE,129,0.0,3.0,92,0.00,,,0.12,weatherlink.com 1.10,2013-09-19 17:57:00,
2013-09-19 14:12:00,70.6,68.0,29.89,WSW,237,1.0,2.0,91,0.00,,,0.12,weatherlink.com 1.10,2013-09-19 18:12:00,
2013-09-19 14:27:00,70.7,68.0,29.88,WSW,238,0.0,2.0,91,0.00,,,0.12,weatherlink.com 1.10,2013-09-19 18:27:00,
2013-09-19 14:42:00,70.6,68.0,29.89,SW,225,1.0,3.0,91,0.00,,,0.12,weatherlink.com 1.10,2013-09-19 18:42:00,
2013-09-19 14:57:00,71.0,69.0,29.89,WNW,292,0.0,4.0,92,0.00,,,0.12,weatherlink.com 1.10,2013-09-19 18:57:00,
2013-09-19 15:12:00,71.9,68.0,29.88,NW,312,2.0,3.0,88,0.00,,,0.12,weatherlink.com 1.10,2013-09-19 19:12:00,
2013-09-19 15:27:00,72.4,68.0,29.89,WSW,257,0.0,1.0,87,0.00,,,0.12,weatherlink.com 1.10,2013-09-19 19:27:00,
2013-09-19 15:42:00,72.3,68.0,29.89,SW,225,0.0,2.0,86,0.00,,,0.12,weatherlink.com 1.10,2013-09-19 19:42:00,
2013-09-19 15:58:00,72.4,68.0,29.88,SE,136,0.0,3.0,86,0.00,,,0.12,weatherlink.com 1.10,2013-09-19 19:58:00,
2013-09-19 16:13:00,72.2,68.0,29.87,ESE,109,0.0,3.0,85,0.00,,,0.12,weatherlink.com 1.10,2013-09-19 20:13:00,
2013-09-19 16:28:00,72.0,67.0,29.86,SSE,152,0.0,2.0,85,0.00,,,0.12,weatherlink.com 1.10,2013-09-19 20:28:00,
2013-09-19 16:43:00,71.7,67.0,29.86,SE,132,0.0,2.0,86,0.00,,,0.12,weatherlink.com 1.10,2013-09-19 20:43:00,
2013-09-19 16:58:00,71.2,68.0,29.86,NE,35,0.0,1.0,88,0.00,,,0.12,weatherlink.com 1.10,2013-09-19 20:58:00,
2013-09-19 17:13:00,70.5,68.0,29.85,East,96,0.0,0.0,90,0.00,,,0.12,weatherlink.com 1.10,2013-09-19 21:13:00,
2013-09-19 17:28:00,70.1,68.0,29.85,ESE,120,0.0,0.0,92,0.00,,,0.12,weatherlink.com 1.10,2013-09-19 21:28:00,
2013-09-19 17:43:00,70.5,68.0,29.85,NNE,18,0.0,1.0,91,0.00,,,0.12,weatherlink.com 1.10,2013-09-19 21:43:00,
2013-09-19 17:58:00,71.1,68.0,29.83,ENE,70,0.0,1.0,90,0.00,,,0.12,weatherlink.com 1.10,2013-09-19 21:58:00,
2013-09-19 18:13:00,71.5,68.0,29.83,NE,44,0.0,0.0,89,0.00,,,0.12,weatherlink.com 1.10,2013-09-19 22:13:00,
2013-09-19 18:28:00,71.7,68.0,29.82,NE,44,0.0,0.0,89,0.00,,,0.12,weatherlink.com 1.10,2013-09-19 22:28:00,
2013-09-19 18:43:00,72.1,69.0,29.82,ESE,119,0.0,0.0,89,0.00,,,0.12,weatherlink.com 1.10,2013-09-19 22:43:00,
2013-09-19 18:58:00,71.9,68.0,29.81,East,98,0.0,0.0,87,0.00,,,0.12,weatherlink.com 1.10,2013-09-19 22:58:00,
2013-09-19 19:13:00,71.5,67.0,29.82,ESE,117,0.0,2.0,86,0.00,,,0.12,weatherlink.com 1.10,2013-09-19 23:13:00,
2013-09-19 19:28:00,70.9,67.0,29.82,East,89,0.0,0.0,86,0.00,,,0.12,weatherlink.com 1.10,2013-09-19 23:28:00,
2013-09-19 19:43:00,70.3,66.0,29.82,ESE,104,0.0,1.0,87,0.00,,,0.12,weatherlink.com 1.10,2013-09-19 23:43:00,
2013-09-19 19:58:00,69.7,66.0,29.82,East,101,0.0,0.0,88,0.00,,,0.12,weatherlink.com 1.10,2013-09-19 23:58:00,
2013-09-19 20:13:00,69.2,66.0,29.83,NE,54,0.0,1.0,89,0.00,,,0.12,weatherlink.com 1.10,2013-09-20 00:13:00,
2013-09-19 20:28:00,69.0,66.0,29.83,East,80,0.0,2.0,89,0.00,,,0.12,weatherlink.com 1.10,2013-09-20 00:28:00,
2013-09-19 20:43:00,68.6,66.0,29.84,East,80,0.0,0.0,90,0.00,,,0.12,weatherlink.com 1.10,2013-09-20 00:43:00,
2013-09-19 20:58:00,68.4,66.0,29.84,East,81,0.0,0.0,91,0.00,,,0.12,weatherlink.com 1.10,2013-09-20 00:58:00,
2013-09-19 21:13:00,68.2,66.0,29.84,East,81,0.0,0.0,91,0.00,,,0.12,weatherlink.com 1.10,2013-09-20 01:13:00,
2013-09-19 21:28:00,68.1,66.0,29.83,ENE,65,1.0,1.0,92,0.00,,,0.12,weatherlink.com 1.10,2013-09-20 01:28:00,
2013-09-19 21:43:00,68.0,66.0,29.83,ESE,117,0.0,1.0,92,0.00,,,0.12,weatherlink.com 1.10,2013-09-20 01:43:00,
2013-09-19 21:58:00,68.0,66.0,29.82,SSE,147,0.0,0.0,92,0.00,,,0.12,weatherlink.com 1.10,2013-09-20 01:58:00,
2013-09-19 22:13:00,68.1,66.0,29.82,South,174,0.0,0.0,92,0.00,,,0.12,weatherlink.com 1.10,2013-09-20 02:13:00,
2013-09-19 22:28:00,68.3,66.0,29.81,ESE,114,0.0,0.0,91,0.00,,,0.12,weatherlink.com 1.10,2013-09-20 02:28:00,
2013-09-19 22:43:00,68.6,66.0,29.80,East,88,0.0,2.0,91,0.00,,,0.12,weatherlink.com 1.10,2013-09-20 02:43:00,
2013-09-19 22:58:00,68.9,66.0,29.80,SE,124,0.0,0.0,91,0.00,,,0.12,weatherlink.com 1.10,2013-09-20 02:58:00,
2013-09-19 23:13:00,69.1,66.0,29.79,ENE,58,0.0,1.0,91,0.00,,,0.12,weatherlink.com 1.10,2013-09-20 03:13:00,
2013-09-19 23:28:00,69.3,67.0,29.79,SE,128,1.0,1.0,92,0.00,,,0.12,weatherlink.com 1.10,2013-09-20 03:28:00,
2013-09-19 23:43:00,69.6,67.0,29.82,West,281,1.0,4.0,92,0.00,,,0.12,weatherlink.com 1.10,2013-09-20 03:43:00,
2013-09-19 23:58:00,69.6,67.0,29.82,NW,316,0.0,0.0,92,0.00,,,0.00,weatherlink.com 1.10,2013-09-20 03:58:00,